Location: Unspecified
(48.8656°N, 0.0000°E)
Time: 13:58:18
(UTC+00:00)

Transit 2A Rocket - Pass Details

Date: 21 June 2019
Orbit: 590 x 913 km, 66.7° (Epoch: 16 August)

Event Time Altitude Azimuth Distance (km) Brightness Sun altitude
Rises 14:41:27 0° 304° (WNW) 3,489 8.7 49.7°
Reaches altitude 10° 14:45:45 10° 332° (NNW) 2,492 7.8 49.0°
Maximum altitude 14:48:07 13° 357° (N) 2,277 7.4 48.7°
Drops below altitude 10° 14:50:26 10° 22° (NNE) 2,409 7.4 48.3°
Sets 14:54:25 0° 51° (NE) 3,257 7.9 47.7°
